Time_in_sec,gx,gy,gz
1312468259.52308893,-0.01002187,0.00397295,-0.99994189
1312468259.57178283,-0.00997344,0.00396343,-0.99994241
1312468259.62309980,-0.00992145,0.00372860,-0.99994383
1312468259.67221522,-0.00994200,0.00356783,-0.99994421
1312468259.72321320,-0.00998989,0.00374237,-0.99994310
1312468259.77118278,-0.00966587,0.00348307,-0.99994722
1312468259.82112145,-0.00965358,0.00364121,-0.99994677
1312468259.87234569,-0.00964295,0.00374208,-0.99994650
1312468259.92338014,-0.00952868,0.00363474,-0.99994800
1312468259.97240067,-0.00962689,0.00364088,-0.99994703
1312468260.02024937,-0.00944262,0.00358627,-0.99994899
1312468260.07113814,-0.00942281,0.00335069,-0.99994999
1312468260.12026715,-0.00925582,0.00342186,-0.99995131
1312468260.17108059,-0.00941438,0.00348499,-0.99994961
1312468260.22308850,-0.00933691,0.00332529,-0.99995088
1312468260.27109456,-0.00944609,0.00274273,-0.99995162
1312468260.32316208,-0.00936767,0.00268360,-0.99995252
1312468260.37125874,-0.00933132,0.00279418,-0.99995256
1312468260.42309380,-0.00967860,0.00268644,-0.99994955
1312468260.47122526,-0.00953961,0.00293951,-0.99995018
1312468260.52021694,-0.00942163,0.00327351,-0.99995026
1312468260.57222009,-0.00936830,0.00337326,-0.99995043
1312468260.62321377,-0.00958308,0.00323375,-0.99994885
1312468260.66345310,-0.00956287,0.00299711,-0.99994978
1312468260.72338676,-0.00956171,0.00310646,-0.99994946
1312468260.77221537,-0.00950745,0.00277840,-0.99995094
1312468260.82307768,-0.00943178,0.00286735,-0.99995141
1312468260.87192178,-0.00946700,0.00282357,-0.99995120
1312468260.92500854,-0.00949655,0.00274078,-0.99995115
1312468260.97217631,-0.00946996,0.00276923,-0.99995132
1312468261.02411723,-0.00938524,0.00303033,-0.99995137
1312468261.07111025,-0.00959626,0.00307718,-0.99994922
1312468261.12315011,-0.00973358,0.00298512,-0.99994817
1312468261.17112446,-0.00972837,0.00297647,-0.99994825
1312468261.22408938,-0.00968327,0.00294692,-0.99994877
1312468261.27222514,-0.00967620,0.00319755,-0.99994807
1312468261.32411551,-0.00964197,0.00321402,-0.99994835
1312468261.37215018,-0.00979637,0.00312068,-0.99994714
1312468261.42308092,-0.00987482,0.00310810,-0.99994641
1312468261.47214890,-0.00983816,0.00308943,-0.99994683
1312468261.52313757,-0.00962235,0.00309057,-0.99994893
1312468261.57128572,-0.00966309,0.00295100,-0.99994896
1312468261.62321711,-0.00990680,0.00293322,-0.99994662
1312468261.66422129,-0.00976641,0.00294290,-0.99994798
1312468261.72352624,-0.00975167,0.00275117,-0.99994867
1312468261.77111673,-0.00977608,0.00266335,-0.99994867
1312468261.82310891,-0.00948856,0.00266453,-0.99995143
1312468261.87112379,-0.00970744,0.00249380,-0.99994977
1312468261.92309880,-0.01006355,0.00240744,-0.99994646
1312468261.97116709,-0.00995324,0.00265717,-0.99994693
1312468262.02323532,-0.01053883,0.00227559,-0.99994188
1312468262.07123184,-0.01075834,0.00220690,-0.99993969
1312468262.12323284,-0.01073613,0.00251548,-0.99993920
1312468262.17122316,-0.01082116,0.00276690,-0.99993762
1312468262.22308922,-0.01084401,0.00258071,-0.99993787
1312468262.27161956,-0.01047902,0.00300826,-0.99994057
1312468262.32312036,-0.01061962,0.00304879,-0.99993896
1312468262.37176085,-0.01040028,0.00318511,-0.99994084
1312468262.42311382,-0.01049594,0.00314963,-0.99993996
1312468262.47121191,-0.01048781,0.00284927,-0.99994094
1312468262.52455378,-0.01041742,0.00227703,-0.99994314
1312468262.57111216,-0.01072702,0.00212312,-0.99994021
1312468262.62311006,-0.01090098,0.00203008,-0.99993852
1312468262.67114425,-0.01059630,0.00225801,-0.99994131
1312468262.72346854,-0.01033974,0.00231906,-0.99994385
1312468262.77124429,-0.01017375,0.00212332,-0.99994599
1312468262.82421017,-0.01020032,0.00225347,-0.99994544
1312468262.87135458,-0.01030937,0.00232634,-0.99994415
1312468262.92426085,-0.01037216,0.00231880,-0.99994352
1312468262.97120070,-0.01025979,0.00266465,-0.99994382
1312468263.02027750,-0.01067163,0.00201158,-0.99994103
1312468263.07121420,-0.01045485,0.00192620,-0.99994349
1312468263.12345648,-0.01043470,0.00174620,-0.99994403
1312468263.16322303,-0.01045221,0.00179019,-0.99994377
1312468263.22325039,-0.01053495,0.00202259,-0.99994246
1312468263.27120519,-0.01101265,0.00263947,-0.99993588
1312468263.32362080,-0.01086183,0.00248508,-0.99993792
1312468263.37113905,-0.01096453,0.00241237,-0.99993698
1312468263.42014813,-0.01128551,0.00221347,-0.99993387
1312468263.47206545,-0.01129101,0.00202233,-0.99993421
1312468263.52421260,-0.01217255,0.00220215,-0.99992349
1312468263.57122922,-0.01208340,0.00212705,-0.99992473
1312468263.62011647,-0.01192154,0.00220175,-0.99992651
1312468263.67122388,-0.01186577,0.00212146,-0.99992735
1312468263.72350478,-0.01182784,0.00259130,-0.99992669
1312468263.77111745,-0.01249967,0.00231350,-0.99991920
1312468263.82335329,-0.01273910,0.00251586,-0.99991569
1312468263.87159848,-0.01257919,0.00275483,-0.99991708
1312468263.92013431,-0.01287133,0.00277571,-0.99991331
1312468263.97193122,-0.01269178,0.00283580,-0.99991543
1312468264.02324700,-0.01232755,0.00231556,-0.99992133
1312468264.07215953,-0.01236229,0.00247552,-0.99992052
1312468264.12310457,-0.01262588,0.00252045,-0.99991711
1312468264.17213154,-0.01253831,0.00235465,-0.99991862
1312468264.22311354,-0.01269978,0.00238328,-0.99991651
1312468264.27222943,-0.01183379,0.00174041,-0.99992846
1312468264.32311153,-0.01192101,0.00185661,-0.99992722
1312468264.37198305,-0.01177444,0.00189808,-0.99992888
1312468264.42422652,-0.01161607,0.00185253,-0.99993082
1312468264.47221565,-0.01188825,0.00192417,-0.99992748
1312468264.52307582,-0.01212332,0.00139731,-0.99992553
1312468264.57207894,-0.01212825,0.00164874,-0.99992509
1312468264.62311721,-0.01194478,0.00142680,-0.99992764
1312468264.67223620,-0.01180582,0.00157698,-0.99992907
1312468264.72417188,-0.01169506,0.00126757,-0.99993081
1312468264.77113128,-0.01174479,0.00099285,-0.99993053
1312468264.82422471,-0.01181288,0.00112021,-0.99992960
1312468264.87121248,-0.01186660,0.00102795,-0.99992906
1312468264.92427778,-0.01198642,0.00094421,-0.99992771
1312468264.97112250,-0.01218603,0.00082640,-0.99992541
1312468265.02321839,-0.01147018,0.00094047,-0.99993377
1312468265.07120252,-0.01140847,0.00066911,-0.99993470
1312468265.12312150,-0.01141133,0.00065863,-0.99993467
1312468265.16325998,-0.01103987,0.00085885,-0.99993869
1312468265.22329473,-0.01107044,0.00080864,-0.99993839
1312468265.27121401,-0.01029460,0.00098365,-0.99994653
1312468265.32320452,-0.01036655,0.00117318,-0.99994558
1312468265.37108684,-0.01031731,0.00123925,-0.99994601
1312468265.42313790,-0.01057064,0.00136211,-0.99994320
1312468265.47121358,-0.01065972,0.00130052,-0.99994234
1312468265.52320504,-0.01000503,0.00103826,-0.99994941
1312468265.57107997,-0.00976805,0.00100016,-0.99995179
1312468265.62311339,-0.01008846,0.00118104,-0.99994841
1312468265.66422987,-0.00993989,0.00135630,-0.99994968
1312468265.72308826,-0.01007562,0.00139778,-0.99994826
1312468265.77121210,-0.01031247,0.00163729,-0.99994548
1312468265.82397103,-0.01019687,0.00179104,-0.99994641
1312468265.87120366,-0.01038673,0.00147704,-0.99994497
1312468265.92321301,-0.01006460,0.00127136,-0.99994854
1312468265.97120333,-0.01012168,0.00120963,-0.99994804
1312468266.02321720,-0.00986904,0.00076715,-0.99995101
1312468266.07225513,-0.00964981,0.00052972,-0.99995330
1312468266.12308025,-0.00957504,0.00050284,-0.99995403
1312468266.16027093,-0.00962681,0.00040649,-0.99995358
1312468266.22406626,-0.00943021,0.00037028,-0.99995547
1312468266.27120280,-0.00998990,-0.00024034,-0.99995007
1312468266.32311726,-0.01017277,-0.00029715,-0.99994821
1312468266.37123513,-0.01040390,-0.00012303,-0.99994587
1312468266.42310572,-0.01041567,0.00008646,-0.99994575
1312468266.47180271,-0.01058224,0.00027118,-0.99994397
1312468266.52412081,-0.01109082,-0.00059662,-0.99993832
1312468266.57220101,-0.01149216,-0.00030871,-0.99993392
1312468266.62415648,-0.01153314,0.00011139,-0.99993348
1312468266.67123842,-0.01136117,-0.00013810,-0.99993545
1312468266.72307682,-0.01138097,0.00009514,-0.99993523
1312468266.77111578,-0.01111806,-0.00022790,-0.99993817
1312468266.82040501,-0.01099731,-0.00048848,-0.99993941
1312468266.87114739,-0.01110708,-0.00035718,-0.99993825
1312468266.92409229,-0.01115842,-0.00071010,-0.99993749
1312468266.97218323,-0.01146897,-0.00076841,-0.99993393
1312468267.02307034,-0.01284171,-0.00148412,-0.99991644
1312468267.07211494,-0.01269683,-0.00139421,-0.99991842
1312468267.12307262,-0.01272871,-0.00160978,-0.99991769
1312468267.16422558,-0.01274324,-0.00177568,-0.99991722
1312468267.22312641,-0.01291838,-0.00195057,-0.99991465
1312468267.27110124,-0.01285195,-0.00177300,-0.99991584
1312468267.32408166,-0.01283552,-0.00168112,-0.99991621
1312468267.37108684,-0.01304340,-0.00163649,-0.99991359
1312468267.42309213,-0.01286990,-0.00152996,-0.99991601
1312468267.47110462,-0.01269773,-0.00165833,-0.99991801
1312468267.52320457,-0.01246271,-0.00217346,-0.99991998
1312468267.57121205,-0.01262246,-0.00224638,-0.99991781
1312468267.62408257,-0.01230303,-0.00229484,-0.99992168
1312468267.66422296,-0.01217528,-0.00236132,-0.99992309
1312468267.72308135,-0.01207921,-0.00243736,-0.99992407
1312468267.77120066,-0.01196287,-0.00306958,-0.99992373
1312468267.82313323,-0.01186717,-0.00300358,-0.99992507
1312468267.87111712,-0.01192916,-0.00302359,-0.99992427
1312468267.92320323,-0.01185295,-0.00298514,-0.99992530
1312468267.97127104,-0.01187122,-0.00315624,-0.99992455
1312468268.02421689,-0.01283561,-0.00352176,-0.99991142
1312468268.07108212,-0.01334299,-0.00325606,-0.99990568
1312468268.12359118,-0.01334383,-0.00314912,-0.99990601
1312468268.17121100,-0.01322103,-0.00320573,-0.99990746
1312468268.22306561,-0.01317512,-0.00325887,-0.99990789
1312468268.27112532,-0.01342436,-0.00400657,-0.99990186
1312468268.32313681,-0.01354343,-0.00392461,-0.99990058
1312468268.37223768,-0.01361055,-0.00413099,-0.99989884
1312468268.42362452,-0.01349011,-0.00407986,-0.99990068
1312468268.47121477,-0.01369262,-0.00430859,-0.99989697
1312468268.52312112,-0.01387680,-0.00444198,-0.99989385
1312468268.57229733,-0.01373176,-0.00441088,-0.99989599
1312468268.62411451,-0.01388042,-0.00443075,-0.99989385
1312468268.67119718,-0.01398489,-0.00410005,-0.99989380
1312468268.72307444,-0.01418205,-0.00417964,-0.99989069
1312468268.77108979,-0.01468249,-0.00406367,-0.99988395
1312468268.82317781,-0.01476447,-0.00398778,-0.99988305
1312468268.87119937,-0.01481037,-0.00407818,-0.99988200
1312468268.92308545,-0.01469689,-0.00408399,-0.99988365
1312468268.97224569,-0.01461584,-0.00421377,-0.99988430
1312468269.02311635,-0.01481066,-0.00491773,-0.99987822
1312468269.07121348,-0.01492496,-0.00504574,-0.99987589
1312468269.12317109,-0.01506367,-0.00513771,-0.99987334
1312468269.17111826,-0.01520468,-0.00516381,-0.99987107
1312468269.22311854,-0.01524197,-0.00544409,-0.99986901
1312468269.27126718,-0.01560250,-0.00561623,-0.99986250
1312468269.32335258,-0.01566452,-0.00569732,-0.99986107
1312468269.37122893,-0.01571803,-0.00563777,-0.99986057
1312468269.42327571,-0.01579620,-0.00592517,-0.99985768
1312468269.47111773,-0.01588500,-0.00570700,-0.99985754
1312468269.52304959,-0.01564719,-0.00576716,-0.99986094
1312468269.57110929,-0.01594911,-0.00575322,-0.99985625
1312468269.62021446,-0.01609739,-0.00554780,-0.99985504
1312468269.66311765,-0.01598852,-0.00545456,-0.99985730
1312468269.72324586,-0.01604848,-0.00529377,-0.99985720
1312468269.77219248,-0.01587703,-0.00509087,-0.99986099
1312468269.82308626,-0.01574541,-0.00493962,-0.99986383
1312468269.87212634,-0.01589380,-0.00479695,-0.99986218
1312468269.92311358,-0.01579723,-0.00494940,-0.99986297
1312468269.96325684,-0.01588077,-0.00470893,-0.99986280
1312468270.02317929,-0.01631544,-0.00463394,-0.99985616
1312468270.07155132,-0.01637764,-0.00461499,-0.99985523
1312468270.12022185,-0.01653770,-0.00468637,-0.99985226
1312468270.17112255,-0.01661436,-0.00459639,-0.99985141
1312468270.22308707,-0.01674524,-0.00449436,-0.99984969
1312468270.27169776,-0.01718156,-0.00528037,-0.99983844
1312468270.32311749,-0.01710271,-0.00510479,-0.99984071
1312468270.37113523,-0.01734030,-0.00515251,-0.99983637
1312468270.42409205,-0.01705122,-0.00546832,-0.99983966
1312468270.47112346,-0.01733383,-0.00524686,-0.99983599
1312468270.52412534,-0.01774464,-0.00548467,-0.99982751
1312468270.57121253,-0.01770477,-0.00550056,-0.99982813
1312468270.62307644,-0.01772112,-0.00577616,-0.99982628
1312468270.67222714,-0.01764984,-0.00576377,-0.99982762
1312468270.72352266,-0.01800016,-0.00587361,-0.99982073
1312468270.77190089,-0.01734223,-0.00552378,-0.99983435
1312468270.82320786,-0.01742538,-0.00553969,-0.99983282
1312468270.87121201,-0.01742009,-0.00586282,-0.99983107
1312468270.92310929,-0.01746090,-0.00576077,-0.99983095
1312468270.97119975,-0.01746041,-0.00622756,-0.99982816
1312468271.02309632,-0.01713319,-0.00691393,-0.99982931
1312468271.07111526,-0.01722132,-0.00693368,-0.99982766
1312468271.12321186,-0.01720677,-0.00703867,-0.99982718
1312468271.17121053,-0.01725770,-0.00728977,-0.99982450
1312468271.22320008,-0.01710660,-0.00740989,-0.99982621
1312468271.27120185,-0.01706482,-0.00747142,-0.99982647
1312468271.32379603,-0.01721385,-0.00775087,-0.99982179
1312468271.37221241,-0.01711862,-0.00787836,-0.99982243
1312468271.42310452,-0.01687552,-0.00788431,-0.99982651
1312468271.47120976,-0.01700793,-0.00819845,-0.99982174
1312468271.52325058,-0.01645011,-0.00750669,-0.99983651
1312468271.57181001,-0.01644180,-0.00741482,-0.99983733
1312468271.62324047,-0.01617978,-0.00726747,-0.99984269
1312468271.67113471,-0.01624231,-0.00743195,-0.99984046
1312468271.72321439,-0.01610342,-0.00739705,-0.99984297
1312468271.77192616,-0.01556084,-0.00774608,-0.99984892
1312468271.82306266,-0.01563525,-0.00790699,-0.99984650
1312468271.87208891,-0.01573353,-0.00790423,-0.99984498
1312468271.92367792,-0.01598557,-0.00753899,-0.99984380
1312468271.97221303,-0.01595664,-0.00755740,-0.99984412
1312468272.02318811,-0.01595616,-0.00748576,-0.99984467
1312468272.07217097,-0.01607186,-0.00730098,-0.99984418
1312468272.12334561,-0.01657945,-0.00719613,-0.99983666
1312468272.17120290,-0.01679750,-0.00722974,-0.99983277
1312468272.22310567,-0.01687215,-0.00709196,-0.99983250
1312468272.27121806,-0.01640923,-0.00739588,-0.99983801
1312468272.32310724,-0.01646067,-0.00737909,-0.99983728
1312468272.37112546,-0.01649600,-0.00740352,-0.99983652
1312468272.42321372,-0.01658636,-0.00730973,-0.99983572
1312468272.47122264,-0.01690478,-0.00715270,-0.99983152
1312468272.52410936,-0.01682333,-0.00734628,-0.99983149
1312468272.57122517,-0.01667600,-0.00732107,-0.99983414
1312468272.62310219,-0.01691344,-0.00728762,-0.99983040
1312468272.66367984,-0.01715260,-0.00748238,-0.99982489
1312468272.72330737,-0.01712662,-0.00751761,-0.99982507
1312468272.77109647,-0.01620485,-0.00716434,-0.99984303
1312468272.82306933,-0.01590183,-0.00704927,-0.99984871
1312468272.87109876,-0.01580422,-0.00697340,-0.99985079
1312468272.92017365,-0.01557674,-0.00701236,-0.99985409
1312468272.97109890,-0.01561746,-0.00693386,-0.99985400
1312468273.02357888,-0.01568347,-0.00662701,-0.99985505
1312468273.07112169,-0.01588500,-0.00660836,-0.99985199
1312468273.12022233,-0.01595590,-0.00644944,-0.99985190
1312468273.17222428,-0.01588862,-0.00634462,-0.99985364
1312468273.22311521,-0.01604512,-0.00613219,-0.99985246
1312468273.27113366,-0.01644007,-0.00614592,-0.99984596
1312468273.32408834,-0.01629267,-0.00612340,-0.99984851
1312468273.37112260,-0.01659271,-0.00624085,-0.99984285
1312468273.42308283,-0.01666769,-0.00632778,-0.99984106
1312468273.47112274,-0.01662426,-0.00654102,-0.99984041
1312468273.52324176,-0.01674662,-0.00746126,-0.99983193
1312468273.57121038,-0.01699784,-0.00734567,-0.99982854
1312468273.62324023,-0.01704423,-0.00734071,-0.99982779
1312468273.66320300,-0.01708460,-0.00751754,-0.99982579
1312468273.72414374,-0.01704028,-0.00725763,-0.99982846
1312468273.77120161,-0.01638495,-0.00742477,-0.99983819
1312468273.82308841,-0.01647224,-0.00759326,-0.99983549
1312468273.87121511,-0.01624334,-0.00766031,-0.99983872
1312468273.92368841,-0.01659224,-0.00760004,-0.99983345
1312468273.97214532,-0.01660863,-0.00748419,-0.99983406
1312468274.02307391,-0.01589286,-0.00746787,-0.99984581
1312468274.07120156,-0.01588338,-0.00749648,-0.99984575
1312468274.12312007,-0.01587323,-0.00760998,-0.99984505
1312468274.17109489,-0.01556017,-0.00744066,-0.99985125
1312468274.22308087,-0.01554926,-0.00720972,-0.99985311
1312468274.27207041,-0.01508404,-0.00669683,-0.99986380
1312468274.32315755,-0.01514170,-0.00681433,-0.99986214
1312468274.37190747,-0.01510266,-0.00708822,-0.99986082
1312468274.42310214,-0.01519915,-0.00688087,-0.99986081
1312468274.47216272,-0.01546101,-0.00684708,-0.99985703
1312468274.52305412,-0.01500266,-0.00618191,-0.99986834
1312468274.57107329,-0.01510996,-0.00605552,-0.99986750
1312468274.62308836,-0.01528592,-0.00632545,-0.99986316
1312468274.66336274,-0.01520475,-0.00613873,-0.99986556
1312468274.72321057,-0.01509243,-0.00609580,-0.99986752
1312468274.76308370,-0.01546346,-0.00645091,-0.99985962
1312468274.82320690,-0.01542017,-0.00630038,-0.99986125
1312468274.87165070,-0.01561204,-0.00636632,-0.99985786
1312468274.92320466,-0.01573629,-0.00639671,-0.99985572
1312468274.97114038,-0.01564398,-0.00664046,-0.99985557
1312468275.02350879,-0.01511424,-0.00677277,-0.99986284
1312468275.07121062,-0.01506300,-0.00677394,-0.99986360
1312468275.12336850,-0.01501932,-0.00661587,-0.99986532
1312468275.17223263,-0.01514713,-0.00655956,-0.99986376
1312468275.22313046,-0.01497898,-0.00642913,-0.99986714
1312468275.27122188,-0.01495119,-0.00616640,-0.99986921
1312468275.32392788,-0.01489201,-0.00621449,-0.99986980
1312468275.37109613,-0.01495718,-0.00638982,-0.99986772
1312468275.42306280,-0.01490275,-0.00603794,-0.99987072
1312468275.47108626,-0.01487960,-0.00607469,-0.99987084
1312468275.52316689,-0.01440643,-0.00568335,-0.99988007
1312468275.57122660,-0.01451116,-0.00589856,-0.99987731
1312468275.62311077,-0.01434369,-0.00595754,-0.99987938
1312468275.66026592,-0.01429805,-0.00578385,-0.99988105
1312468275.72364116,-0.01417415,-0.00594839,-0.99988185
1312468275.77109146,-0.01352349,-0.00542237,-0.99989385
1312468275.82311344,-0.01327319,-0.00558163,-0.99989633
1312468275.87121367,-0.01349673,-0.00572226,-0.99989254
1312468275.92309856,-0.01346197,-0.00610482,-0.99989075
1312468275.97121954,-0.01338214,-0.00600875,-0.99989240
1312468276.02363658,-0.01265887,-0.00576580,-0.99990325
1312468276.07112265,-0.01257662,-0.00572150,-0.99990454
1312468276.12364745,-0.01249637,-0.00572217,-0.99990554
1312468276.17110229,-0.01271094,-0.00570572,-0.99990293
1312468276.22414136,-0.01259860,-0.00585333,-0.99990350
1312468276.27110910,-0.01213911,-0.00550528,-0.99991116
1312468276.32415318,-0.01230080,-0.00542839,-0.99990961
1312468276.37110901,-0.01245781,-0.00533657,-0.99990816
1312468276.42330813,-0.01260143,-0.00542201,-0.99990590
1312468276.47213531,-0.01261637,-0.00554692,-0.99990502
1312468276.52409220,-0.01260449,-0.00485588,-0.99990877
1312468276.57112670,-0.01246820,-0.00505979,-0.99990947
1312468276.62306118,-0.01269228,-0.00487053,-0.99990759
1312468276.66321301,-0.01272753,-0.00503007,-0.99990635
1312468276.72320485,-0.01261703,-0.00497017,-0.99990805
1312468276.77180958,-0.01202264,-0.00444775,-0.99991783
1312468276.82312346,-0.01207134,-0.00441479,-0.99991739
1312468276.87114716,-0.01182826,-0.00430271,-0.99992079
1312468276.92367625,-0.01187583,-0.00440823,-0.99991976
1312468276.97112918,-0.01180976,-0.00447781,-0.99992024
1312468277.02307057,-0.01142635,-0.00409179,-0.99992635
1312468277.07225704,-0.01146700,-0.00389519,-0.99992666
1312468277.12354541,-0.01153123,-0.00361021,-0.99992700
1312468277.17120814,-0.01145756,-0.00351559,-0.99992818
1312468277.22337627,-0.01159039,-0.00353042,-0.99992660
1312468277.27112460,-0.01061482,-0.00333464,-0.99993810
1312468277.32384968,-0.01047925,-0.00349645,-0.99993898
1312468277.37119889,-0.01043185,-0.00361423,-0.99993906
1312468277.42311049,-0.01053133,-0.00358730,-0.99993811
1312468277.47120953,-0.01041151,-0.00350594,-0.99993965
1312468277.52406621,-0.00976351,-0.00321500,-0.99994717
1312468277.57119942,-0.00975768,-0.00329188,-0.99994697
1312468277.62362528,-0.00977262,-0.00328901,-0.99994684
1312468277.66424131,-0.00991261,-0.00325204,-0.99994558
1312468277.72343063,-0.01003708,-0.00334203,-0.99994404
1312468277.77222085,-0.00988522,-0.00278267,-0.99994727
1312468277.82315850,-0.00984888,-0.00251645,-0.99994833
1312468277.87119794,-0.00996685,-0.00268788,-0.99994672
1312468277.92319989,-0.00983443,-0.00270553,-0.99994798
1312468277.97119880,-0.00965503,-0.00284803,-0.99994933
1312468278.02321386,-0.00916549,-0.00250097,-0.99995487
1312468278.07121062,-0.00922119,-0.00258546,-0.99995414
1312468278.12408066,-0.00905609,-0.00284038,-0.99995496
1312468278.17120051,-0.00891206,-0.00281259,-0.99995633
1312468278.22308350,-0.00882068,-0.00286310,-0.99995700
1312468278.27106762,-0.00793121,-0.00183501,-0.99996686
